O'Neill, NE

10:04 PM CDT on July 22, 2017 (GMT -0500)
The O'Neill Municipal-Baker

Weather History for KONL - November, 2014

Change the Weather History Date:

Sunday, November 9, 2014

  Actual Average Record
Temperature  
Mean Temperature 48 °F -  
Max Temperature 58 °F 44 °F 78 °F (2001)
Min Temperature 37 °F 26 °F 10 °F (1960)
Degree Days  
Heating Degree Days 18    
Moisture  
Dew Point 34 °F    
Average Humidity 67    
Maximum Humidity 81    
Minimum Humidity 38    
Precipitation  
Precipitation 0.00 in - - ()
Sea Level Pressure  
Sea Level Pressure 29.71 in    
Wind  
Wind Speed 7 mph (North)    
Max Wind Speed 15 mph    
Max Gust Speed 21 mph    
Visibility 10 miles    
Events      
Averages and records for this station are not official NWS values.
T = Trace of Precipitation, MM = Missing Value Source: NWS Daily Summary

Daily Weather History Graph

Daily Weather History Graph

Search for Another Location

Airport or City:

Trip Planner

Search our weather history database for the weather conditions in past years. The results will help you decide how hot, cold, wet, or windy it might be!

Date:

Astronomy

Nov. 09, 2014 Rise Set
Actual Time 7:18 AM CST 5:18 PM CST
Civil Twilight 6:48 AM CST 5:48 PM CST
Nautical Twilight 6:14 AM CST 6:21 PM CST
Astronomical Twilight 5:41 AM CST 6:54 PM CST
Moon 7:51 PM CST (11/9) 9:53 AM CST (11/9)
Length of Visible Light 10h 59m
Length of Day
9h 59m
Waning Gibbous, 91% of the Moon is Illuminated
Nov 9
Waning Gibbous
Nov 14
Last Quarter
Nov 22
New
Nov 29
First Quarter
Dec 6
Full

Hourly Weather History & Observations

Time (CST) Temp. Windchill Dew Point Humidity Pressure Visibility Wind Dir Wind Speed Gust Speed Precip Events Conditions
12:15 AM 40.3 °F 35.5 °F 33.8 °F 78% 29.84 in 10.0 mi WSW 6.9 mph - N/A   Clear
12:35 AM 40.5 °F 35.8 °F 34.2 °F 78% 29.84 in 10.0 mi WSW 6.9 mph - N/A   Clear
12:55 AM 40.5 °F 34.6 °F 34.2 °F 78% 29.83 in 10.0 mi West 9.2 mph - N/A   Clear
1:15 AM 40.8 °F 36.2 °F 34.3 °F 78% 29.83 in 10.0 mi West 6.9 mph - N/A   Clear
1:35 AM 40.5 °F 35.1 °F 34.2 °F 78% 29.83 in 10.0 mi West 8.1 mph - N/A   Clear
1:55 AM 40.5 °F 35.1 °F 34.0 °F 78% 29.82 in 10.0 mi WNW 8.1 mph - N/A   Clear
2:15 AM 42.4 °F 37.0 °F 33.8 °F 71% 29.83 in 10.0 mi WNW 9.2 mph - N/A   Clear
2:35 AM 40.3 °F 34.9 °F 33.1 °F 75% 29.82 in 10.0 mi West 8.1 mph - N/A   Clear
2:55 AM 41.0 °F 35.2 °F 33.3 °F 74% 29.83 in 10.0 mi West 9.2 mph - N/A   Clear
3:15 AM 39.2 °F 34.2 °F 32.9 °F 78% 29.82 in 10.0 mi West 6.9 mph - N/A   Clear
3:35 AM 38.3 °F 33.2 °F 32.7 °F 80% 29.82 in 10.0 mi West 6.9 mph - N/A   Clear
3:55 AM 38.5 °F 32.1 °F 32.9 °F 80% 29.82 in 10.0 mi West 9.2 mph - N/A   Clear
4:15 AM 37.9 °F 32.1 °F 32.4 °F 80% 29.82 in 10.0 mi West 8.1 mph - N/A   Clear
4:35 AM 38.7 °F 32.9 °F 32.9 °F 80% 29.82 in 10.0 mi West 8.1 mph - N/A   Clear
4:55 AM 40.6 °F 34.8 °F 33.3 °F 75% 29.81 in 10.0 mi West 9.2 mph - N/A   Clear
5:15 AM 41.5 °F 35.4 °F 33.3 °F 72% 29.81 in 10.0 mi West 10.4 mph - N/A   Clear
5:35 AM 41.2 °F 36.0 °F 33.1 °F 73% 29.81 in 10.0 mi West 8.1 mph - N/A   Clear
5:55 AM 39.9 °F 35.1 °F 32.4 °F 74% 29.80 in 10.0 mi West 6.9 mph - N/A   Clear
6:15 AM 39.9 °F 37.8 °F 32.0 °F 73% 29.79 in 10.0 mi West 3.5 mph - N/A   Clear
6:35 AM 40.3 °F 37.1 °F 32.0 °F 72% 29.79 in 10.0 mi WSW 4.6 mph - N/A   Clear
6:55 AM 38.1 °F 35.7 °F 32.0 °F 79% 29.79 in 10.0 mi West 3.5 mph - N/A   Clear
7:15 AM 39.2 °F 35.9 °F 32.0 °F 75% 29.79 in 10.0 mi West 4.6 mph - N/A   Clear
7:35 AM 38.5 °F - 32.0 °F 78% 29.79 in 10.0 mi Calm Calm - N/A   Clear
7:55 AM 38.5 °F - 32.0 °F 78% 29.80 in 10.0 mi Calm Calm - N/A   Clear
8:15 AM 40.1 °F - 32.7 °F 75% 29.80 in 10.0 mi Calm Calm - N/A   Clear
8:35 AM 41.4 °F - 33.1 °F 72% 29.81 in 10.0 mi Calm Calm - N/A   Clear
8:55 AM 43.9 °F 42.3 °F 33.6 °F 67% 29.81 in 10.0 mi West 3.5 mph - N/A   Clear
9:15 AM 45.9 °F 43.6 °F 33.8 °F 63% 29.81 in 10.0 mi WNW 4.6 mph - N/A   Clear
9:35 AM 48.9 °F - 34.5 °F 58% 29.81 in 10.0 mi West 4.6 mph - N/A   Clear
9:55 AM 50.9 °F - 34.9 °F 54% 29.80 in 10.0 mi Calm Calm - N/A   Clear
10:15 AM 51.8 °F - 35.6 °F 54% 29.79 in 10.0 mi Calm Calm - N/A   Clear
10:35 AM 54.1 °F - 34.3 °F 47% 29.78 in 10.0 mi West 3.5 mph - N/A   Clear
10:55 AM 56.1 °F - 34.3 °F 44% 29.78 in 10.0 mi West 3.5 mph - N/A   Clear
11:15 AM 57.2 °F - 34.0 °F 42% 29.78 in 10.0 mi West 4.6 mph - N/A   Clear
11:35 AM 57.4 °F - 33.1 °F 40% 29.78 in 10.0 mi West 5.8 mph - N/A   Clear
11:55 AM 57.7 °F - 32.9 °F 39% 29.76 in 10.0 mi West 4.6 mph - N/A   Clear
12:15 PM 57.6 °F - 32.4 °F 39% 29.76 in 10.0 mi NW 3.5 mph - N/A   Clear
12:35 PM 58.3 °F - 32.4 °F 38% 29.74 in 10.0 mi Calm Calm - N/A   Clear
12:55 PM 58.1 °F - 32.2 °F 38% 29.73 in 10.0 mi Calm Calm - N/A   Clear
1:15 PM 57.9 °F - 32.7 °F 39% 29.72 in 10.0 mi Calm Calm - N/A   Clear
1:35 PM 55.4 °F - 35.6 °F 47% 29.71 in 10.0 mi NE 10.4 mph - N/A   Clear
1:55 PM 53.4 °F - 34.0 °F 48% 29.70 in 10.0 mi NE 9.2 mph - N/A   Clear
2:15 PM 53.8 °F - 34.2 °F 47% 29.69 in 10.0 mi ENE 11.5 mph - N/A   Clear
2:35 PM 53.6 °F - 34.2 °F 48% 29.69 in 10.0 mi NE 11.5 mph - N/A   Clear
2:55 PM 52.9 °F - 34.3 °F 49% 29.67 in 10.0 mi ENE 10.4 mph - N/A   Clear
3:15 PM 52.7 °F - 34.7 °F 50% 29.68 in 10.0 mi ENE 9.2 mph - N/A   Clear
3:35 PM 52.0 °F - 34.9 °F 52% 29.67 in 10.0 mi ENE 11.5 mph - N/A   Clear
3:55 PM 51.4 °F - 34.9 °F 53% 29.66 in 10.0 mi ENE 10.4 mph - N/A   Clear
4:15 PM 50.9 °F - 35.6 °F 56% 29.65 in 10.0 mi ENE 9.2 mph - N/A   Clear
4:35 PM 50.0 °F - 35.6 °F 58% 29.65 in 10.0 mi East 11.5 mph - N/A   Clear
4:55 PM 48.6 °F - 35.8 °F 61% 29.64 in 10.0 mi ENE 9.2 mph - N/A   Clear
5:15 PM 47.3 °F - 35.6 °F 64% 29.64 in 10.0 mi ENE 8.1 mph - N/A   Clear
5:35 PM 45.1 °F 40.8 °F 35.6 °F 69% 29.64 in 10.0 mi ENE 8.1 mph - N/A   Scattered Clouds
5:55 PM 44.4 °F 40.0 °F 35.8 °F 72% 29.64 in 10.0 mi ENE 8.1 mph - N/A   Clear
6:15 PM 44.1 °F 38.6 °F 36.1 °F 74% 29.63 in 10.0 mi ENE 10.4 mph - N/A   Clear
6:35 PM 43.3 °F 37.7 °F 36.0 °F 75% 29.62 in 10.0 mi ENE 10.4 mph - N/A   Clear
6:55 PM 42.8 °F 37.5 °F 36.1 °F 77% 29.61 in 10.0 mi East 9.2 mph - N/A   Clear
7:15 PM 42.8 °F 37.0 °F 36.5 °F 78% 29.62 in 10.0 mi ENE 10.4 mph - N/A   Clear
7:35 PM 42.8 °F 37.0 °F 36.5 °F 78% 29.61 in 10.0 mi East 10.4 mph - N/A   Clear
7:55 PM 42.4 °F 36.5 °F 36.5 °F 79% 29.61 in 10.0 mi East 10.4 mph - N/A   Clear
8:15 PM 41.9 °F 35.9 °F 36.5 °F 81% 29.59 in 10.0 mi East 10.4 mph - N/A   Clear
8:35 PM 41.9 °F 35.9 °F 36.5 °F 81% 29.58 in 10.0 mi East 10.4 mph - N/A   Clear
8:55 PM 42.1 °F 36.1 °F 36.5 °F 81% 29.57 in 10.0 mi East 10.4 mph - N/A   Clear
9:15 PM 42.3 °F 36.3 °F 36.5 °F 80% 29.56 in 10.0 mi East 10.4 mph 16.1 mph N/A   Clear
9:35 PM 42.8 °F 36.6 °F 36.7 °F 79% 29.55 in 10.0 mi ESE 11.5 mph - N/A   Clear
9:55 PM 43.7 °F 37.3 °F 36.9 °F 77% 29.53 in 10.0 mi ESE 12.7 mph - N/A   Clear
10:15 PM 44.2 °F 37.3 °F 36.9 °F 75% 29.52 in 10.0 mi ESE 15.0 mph 20.7 mph N/A   Clear
10:35 PM 44.2 °F 38.0 °F 37.0 °F 76% 29.50 in 10.0 mi ESE 12.7 mph - N/A   Clear
10:55 PM 44.6 °F 38.1 °F 37.0 °F 75% 29.49 in 10.0 mi ESE 13.8 mph - N/A   Clear
11:15 PM 44.6 °F 38.8 °F 37.2 °F 75% 29.48 in 10.0 mi ESE 11.5 mph - N/A   Clear
11:35 PM 44.8 °F 39.4 °F 37.2 °F 75% 29.47 in 10.0 mi ESE 10.4 mph 19.6 mph N/A   Clear
11:55 PM 45.0 °F 40.1 °F 37.4 °F 75% 29.46 in 10.0 mi ESE 9.2 mph - N/A   Clear